Location: Unspecified
(29.9911°N, 0.0000°E)
Time: 07:11:24
(UTC+00:00)

deb r/b (DELTA) - Visible Passes

Search period start: 04 April 2026 00:00
Search period end: 14 April 2026 00:00
Orbit: 740 x 872 km, 98.8° (Epoch: 27 March)

Date Brightness Start Highest point End Pass type
(mag) Time Alt. Az. Time Alt. Az. Time Alt. Az.
4 Apr ? 18:43:04 10° SSE 18:48:31 83° WSW 18:54:08 10° NNW visible
5 Apr ? 20:00:50 10° SW 20:03:43 14° W 20:06:38 10° WNW visible
6 Apr ? 19:34:07 10° SSW 19:38:38 26° W 19:43:16 10° NW visible
7 Apr ? 19:08:23 10° S 19:13:38 47° W 19:19:02 10° NNW visible
8 Apr ? 18:43:13 10° SSE 18:48:44 84° WSW 18:54:23 10° NNW visible
9 Apr ? 20:00:57 10° SW 20:03:54 15° W 20:06:55 10° WNW visible
10 Apr ? 19:34:15 10° SSW 19:38:50 27° W 19:43:29 10° NW visible
11 Apr ? 19:08:32 10° S 19:13:51 47° W 19:19:15 10° NNW visible
12 Apr ? 18:43:23 10° SSE 18:48:56 84° WSW 18:54:36 10° NNW visible
13 Apr ? 20:01:04 10° SW 20:04:06 15° W 20:07:09 10° WNW visible
